View from above orbital plane
|
View from above satellite
|
Ground track
|
The orbit data is extracted from the following two-line orbital elements,
1 15360U 84109B 21019.43236021 .00000076 00000-0 61920-4 0 9996
2 15360 82.9411 153.6637 0040790 344.9212 15.0725 13.76779933822140
Epoch (UTC): | 19 January 2021 10:22:35 |
Eccentricity: | 0.0040790 |
inclination: | 82.9411° |
perigee height: | 945 km |
apogee height: | 1005 km |
right ascension of ascending node: | 153.6637° |
argument of perigee: | 344.9212° |
revolutions per day: | 13.76779933 |
mean anomaly at epoch: | 15.0725° |
orbit number at epoch: | 82214 |
The dashed part of the orbit path shows where the satellite is in the earth's shadow,
|
|